| time (UTC) | temp F | wind direction | speed MPH | gust MPH | rain 1hr in | rain 24hr in | rain mn in | humidity % | barometer mb |
| 20260905004024 | 73 | 324 | 2.0 | 3.0 | 0.00 | 0.00 | 0.00 | 86 | 1021.8 |
| 20260905002020 | 73 | 324 | 2.0 | 3.0 | 0.00 | 0.00 | 0.00 | 86 | 1022.1 |
| 20260905001020 | 73 | 323 | 2.0 | 4.0 | 0.00 | 0.00 | 0.00 | 86 | 1022.1 |
| 20260905000026 | 73 | 333 | 3.0 | 4.0 | 0.00 | 0.00 | 0.00 | 86 | 1022.1 |
| 20260904234019 | 73 | 337 | 1.0 | 4.0 | 0.00 | 0.00 | 0.00 | 86 | 1022.2 |
| 20260904233021 | 73 | 0 | 0.0 | 0.0 | 0.00 | 0.00 | 0.00 | 86 | 1022.1 |
| 20260904232020 | 74 | 0 | 0.0 | 0.0 | 0.00 | 0.00 | 0.00 | 86 | 1022.3 |
| 20260904231021 | 74 | 0 | 0.0 | 0.0 | 0.00 | 0.00 | 0.00 | 86 | 1022.3 |
| 20260904230022 | 74 | 0 | 0.0 | 0.0 | 0.00 | 0.00 | 0.00 | 86 | 1022.2 |
| 20260904225019 | 75 | 0 | 0.0 | 0.0 | 0.00 | 0.00 | 0.00 | 86 | 1022.3 |
| 20260904224022 | 75 | 0 | 0.0 | 0.0 | 0.00 | 0.00 | 0.00 | 86 | 1022.2 |
| 20260904223019 | 75 | 0 | 0.0 | 0.0 | 0.00 | 0.00 | 0.00 | 86 | 1022.1 |
| 20260904222022 | 75 | 0 | 0.0 | 0.0 | 0.00 | 0.00 | 0.00 | 85 | 1022.3 |
| 20260904220020 | 74 | 0 | 0.0 | 0.0 | 0.00 | 0.00 | 0.00 | 84 | 1022.3 |
| 20260904215019 | 75 | 337 | 0.0 | 2.0 | 0.00 | 0.00 | 0.00 | 84 | 1022.4 |
| 20260904213019 | 75 | 337 | 0.0 | 3.0 | 0.00 | 0.00 | 0.00 | 84 | 1022.3 |
| 20260904212020 | 75 | 0 | 0.0 | 0.0 | 0.00 | 0.00 | 0.00 | 84 | 1022.3 |
| 20260904211018 | 75 | 0 | 0.0 | 0.0 | 0.00 | 0.00 | 0.00 | 84 | 1022.3 |
| 20260904210025 | 75 | 337 | 1.0 | 3.0 | 0.00 | 0.00 | 0.00 | 84 | 1022.5 |
| 20260904205018 | 75 | 336 | 1.0 | 3.0 | 0.00 | 0.00 | 0.00 | 84 | 1022.3 |
| 20260904204021 | 76 | 337 | 1.0 | 3.0 | 0.00 | 0.00 | 0.00 | 84 | 1022.3 |
| 20260904203021 | 76 | 336 | 2.0 | 4.0 | 0.00 | 0.00 | 0.00 | 84 | 1022.3 |
| 20260904202021 | 76 | 337 | 1.0 | 2.0 | 0.00 | 0.00 | 0.00 | 84 | 1022.3 |
| 20260904201020 | 76 | 337 | 2.0 | 4.0 | 0.00 | 0.00 | 0.00 | 84 | 1022.2 |
| 20260904200019 | 77 | 337 | 1.0 | 3.0 | 0.00 | 0.00 | 0.00 | 84 | 1022.0 |
| 20260904195019 | 77 | 337 | 2.0 | 3.0 | 0.00 | 0.00 | 0.00 | 84 | 1022.0 |
| 20260904193019 | 77 | 205 | 1.0 | 3.0 | 0.00 | 0.00 | 0.00 | 84 | 1021.9 |
| 20260904192021 | 78 | 0 | 0.0 | 0.0 | 0.00 | 0.00 | 0.00 | 84 | 1021.6 |
| 20260904191021 | 78 | 0 | 0.0 | 0.0 | 0.00 | 0.00 | 0.00 | 84 | 1021.5 |
| 20260904190024 | 79 | 205 | 0.0 | 2.0 | 0.00 | 0.00 | 0.00 | 84 | 1021.4 |
| 20260904185022 | 79 | 205 | 1.0 | 2.0 | 0.00 | 0.00 | 0.00 | 83 | 1021.2 |
| 20260904184026 | 79 | 205 | 1.0 | 3.0 | 0.00 | 0.00 | 0.00 | 83 | 1021.2 |
| 20260904183021 | 80 | 205 | 1.0 | 3.0 | 0.00 | 0.00 | 0.00 | 82 | 1021.1 |
| 20260904182021 | 80 | 205 | 1.0 | 3.0 | 0.00 | 0.00 | 0.00 | 82 | 1021.1 |
| 20260904175020 | 81 | 197 | 4.0 | 7.0 | 0.00 | 0.00 | 0.00 | 80 | 1020.7 |
| 20260904174023 | 82 | 229 | 3.0 | 6.0 | 0.00 | 0.00 | 0.00 | 79 | 1020.7 |
| 20260904173023 | 82 | 221 | 3.0 | 6.0 | 0.00 | 0.00 | 0.00 | 79 | 1020.6 |
| 20260904171022 | 83 | 205 | 3.0 | 8.0 | 0.00 | 0.00 | 0.00 | 77 | 1020.5 |
| 20260904170023 | 84 | 212 | 3.0 | 8.0 | 0.00 | 0.00 | 0.00 | 76 | 1020.4 |
| 20260904165022 | 84 | 227 | 3.0 | 7.0 | 0.00 | 0.00 | 0.00 | 76 | 1020.2 |
| 20260904164020 | 84 | 210 | 3.0 | 10.0 | 0.00 | 0.00 | 0.00 | 76 | 1020.4 |
| 20260904163020 | 84 | 216 | 5.0 | 10.0 | 0.00 | 0.00 | 0.00 | 76 | 1020.2 |
| 20260904162018 | 84 | 225 | 4.0 | 10.0 | 0.00 | 0.00 | 0.00 | 73 | 1020.3 |
| 20260904161022 | 84 | 210 | 5.0 | 12.0 | 0.00 | 0.00 | 0.00 | 74 | 1020.4 |
| 20260904160021 | 84 | 174 | 6.0 | 12.0 | 0.00 | 0.00 | 0.00 | 74 | 1020.4 |
| 20260904155018 | 84 | 182 | 6.0 | 11.0 | 0.00 | 0.00 | 0.00 | 74 | 1020.4 |
| 20260904154018 | 85 | 179 | 6.0 | 12.0 | 0.00 | 0.00 | 0.00 | 73 | 1020.5 |
| 20260904153019 | 85 | 192 | 5.0 | 10.0 | 0.00 | 0.00 | 0.00 | 72 | 1020.3 |
| 20260904152021 | 85 | 191 | 6.0 | 11.0 | 0.00 | 0.00 | 0.00 | 71 | 1020.5 |
| 20260904151021 | 85 | 190 | 6.0 | 12.0 | 0.00 | 0.00 | 0.00 | 71 | 1020.4 |
| 20260904150020 | 86 | 201 | 5.0 | 14.0 | 0.00 | 0.00 | 0.00 | 71 | 1020.5 |
| 20260904145020 | 85 | 197 | 5.0 | 11.0 | 0.00 | 0.00 | 0.00 | 72 | 1020.5 |
| 20260904144021 | 85 | 195 | 6.0 | 12.0 | 0.00 | 0.00 | 0.00 | 70 | 1020.8 |
| 20260904143017 | 85 | 208 | 6.0 | 11.0 | 0.00 | 0.00 | 0.00 | 70 | 1020.7 |
| 20260904142021 | 85 | 198 | 7.0 | 14.0 | 0.00 | 0.00 | 0.00 | 71 | 1020.7 |
| 20260904141020 | 85 | 212 | 6.0 | 14.0 | 0.00 | 0.00 | 0.00 | 71 | 1020.7 |
| 20260904135019 | 85 | 208 | 7.0 | 12.0 | 0.00 | 0.00 | 0.00 | 71 | 1020.9 |
| 20260904134019 | 85 | 198 | 7.0 | 15.0 | 0.00 | 0.00 | 0.00 | 71 | 1021.0 |
| 20260904133018 | 85 | 209 | 6.0 | 11.0 | 0.00 | 0.00 | 0.00 | 73 | 1021.0 |
| 20260904132025 | 85 | 217 | 7.0 | 12.0 | 0.00 | 0.00 | 0.00 | 74 | 1020.9 |
| 20260904131018 | 85 | 212 | 8.0 | 13.0 | 0.00 | 0.00 | 0.00 | 74 | 1021.1 |
| 20260904130019 | 85 | 201 | 6.0 | 11.0 | 0.00 | 0.00 | 0.00 | 74 | 1021.1 |
| 20260904125019 | 85 | 200 | 8.0 | 13.0 | 0.00 | 0.00 | 0.00 | 74 | 1021.2 |
| 20260904124020 | 85 | 211 | 7.0 | 11.0 | 0.00 | 0.00 | 0.00 | 73 | 1021.2 |
| 20260904123019 | 85 | 201 | 6.0 | 14.0 | 0.00 | 0.00 | 0.00 | 74 | 1021.4 |
| 20260904122018 | 85 | 204 | 7.0 | 12.0 | 0.00 | 0.00 | 0.00 | 74 | 1021.4 |
| 20260904121020 | 85 | 201 | 7.0 | 12.0 | 0.00 | 0.00 | 0.00 | 74 | 1021.5 |
| 20260904120021 | 85 | 219 | 5.0 | 10.0 | 0.00 | 0.00 | 0.00 | 73 | 1021.6 |
| 20260904115018 | 85 | 199 | 6.0 | 13.0 | 0.00 | 0.00 | 0.00 | 73 | 1021.7 |
| 20260904114019 | 85 | 212 | 5.0 | 10.0 | 0.00 | 0.00 | 0.00 | 73 | 1021.8 |
| 20260904113018 | 85 | 201 | 6.0 | 15.0 | 0.00 | 0.00 | 0.00 | 72 | 1021.8 |
| 20260904112018 | 85 | 193 | 6.0 | 13.0 | 0.00 | 0.00 | 0.00 | 72 | 1021.9 |
| 20260904110024 | 85 | 169 | 6.0 | 13.0 | 0.00 | 0.00 | 0.00 | 73 | 1021.9 |
| 20260904104018 | 84 | 209 | 5.0 | 10.0 | 0.00 | 0.00 | 0.00 | 73 | 1022.0 |
| 20260904103019 | 84 | 188 | 5.0 | 10.0 | 0.00 | 0.00 | 0.00 | 73 | 1022.1 |
| 20260904102025 | 84 | 187 | 4.0 | 10.0 | 0.00 | 0.00 | 0.00 | 73 | 1022.0 |
| 20260904101019 | 83 | 197 | 5.0 | 9.0 | 0.00 | 0.00 | 0.00 | 73 | 1022.1 |
| 20260904100020 | 84 | 173 | 4.0 | 8.0 | 0.00 | 0.00 | 0.00 | 73 | 1022.2 |
| 20260904095021 | 84 | 183 | 4.0 | 9.0 | 0.00 | 0.00 | 0.00 | 73 | 1022.1 |
| 20260904094019 | 83 | 174 | 5.0 | 10.0 | 0.00 | 0.00 | 0.00 | 74 | 1022.1 |
| 20260904093020 | 82 | 192 | 4.0 | 9.0 | 0.00 | 0.00 | 0.00 | 73 | 1022.1 |
| 20260904092018 | 81 | 196 | 5.0 | 10.0 | 0.00 | 0.00 | 0.00 | 74 | 1022.0 |
| 20260904090020 | 80 | 212 | 5.0 | 9.0 | 0.00 | 0.00 | 0.00 | 76 | 1022.0 |
| 20260904085019 | 80 | 192 | 4.0 | 9.0 | 0.00 | 0.00 | 0.00 | 77 | 1021.9 |
| 20260904084017 | 79 | 188 | 4.0 | 8.0 | 0.00 | 0.00 | 0.00 | 77 | 1021.8 |
| 20260904083018 | 78 | 202 | 4.0 | 8.0 | 0.00 | 0.00 | 0.00 | 79 | 1021.8 |
| 20260904082020 | 78 | 203 | 3.0 | 6.0 | 0.00 | 0.00 | 0.00 | 80 | 1021.6 |
| 20260904081019 | 77 | 188 | 4.0 | 8.0 | 0.00 | 0.00 | 0.00 | 81 | 1021.6 |
| 20260904080022 | 77 | 198 | 4.0 | 10.0 | 0.00 | 0.00 | 0.00 | 82 | 1021.7 |
| 20260904075017 | 76 | 209 | 4.0 | 8.0 | 0.00 | 0.00 | 0.00 | 85 | 1021.8 |
| 20260904074019 | 76 | 206 | 3.0 | 7.0 | 0.00 | 0.00 | 0.00 | 86 | 1021.8 |
| 20260904073018 | 76 | 286 | 2.0 | 6.0 | 0.00 | 0.00 | 0.00 | 89 | 1021.7 |
| 20260904071020 | 74 | 284 | 3.0 | 7.0 | 0.00 | 0.00 | 0.00 | 89 | 1021.7 |
| 20260904064018 | 74 | 293 | 2.0 | 6.0 | 0.00 | 0.00 | 0.00 | 90 | 1021.7 |
| 20260904063019 | 74 | 291 | 3.0 | 6.0 | 0.00 | 0.00 | 0.00 | 90 | 1021.7 |
| 20260904062017 | 74 | 277 | 2.0 | 4.0 | 0.00 | 0.00 | 0.00 | 90 | 1021.6 |
| 20260904060018 | 74 | 252 | 1.0 | 4.0 | 0.00 | 0.00 | 0.00 | 90 | 1021.5 |
| 20260904055017 | 74 | 252 | 2.0 | 3.0 | 0.00 | 0.00 | 0.00 | 90 | 1021.4 |
| 20260904054018 | 74 | 253 | 1.0 | 4.0 | 0.00 | 0.00 | 0.00 | 90 | 1021.5 |
| 20260904053018 | 74 | 252 | 1.0 | 5.0 | 0.00 | 0.00 | 0.00 | 90 | 1021.5 |
| 20260904052017 | 74 | 253 | 2.0 | 5.0 | 0.00 | 0.00 | 0.00 | 90 | 1021.4 |
| 20260904051017 | 74 | 282 | 3.0 | 8.0 | 0.00 | 0.00 | 0.00 | 90 | 1021.6 |
| 20260904050025 | 73 | 291 | 2.0 | 4.0 | 0.00 | 0.00 | 0.00 | 90 | 1021.6 |
| 20260904045019 | 73 | 288 | 3.0 | 6.0 | 0.00 | 0.00 | 0.00 | 90 | 1021.6 |
| 20260904044018 | 73 | 299 | 3.0 | 6.0 | 0.00 | 0.00 | 0.00 | 90 | 1021.6 |
| 20260904043017 | 72 | 326 | 3.0 | 5.0 | 0.00 | 0.00 | 0.00 | 90 | 1021.7 |
| 20260904041020 | 72 | 326 | 3.0 | 5.0 | 0.00 | 0.00 | 0.00 | 89 | 1021.7 |
| 20260904040018 | 72 | 326 | 4.0 | 5.0 | 0.00 | 0.00 | 0.00 | 89 | 1021.7 |
| 20260904035018 | 72 | 326 | 3.0 | 5.0 | 0.00 | 0.00 | 0.00 | 88 | 1021.8 |
| 20260904034020 | 72 | 326 | 3.0 | 5.0 | 0.00 | 0.00 | 0.00 | 88 | 1021.8 |
| 20260904033018 | 72 | 326 | 3.0 | 5.0 | 0.00 | 0.00 | 0.00 | 88 | 1021.9 |
| 20260904032018 | 72 | 326 | 3.0 | 5.0 | 0.00 | 0.00 | 0.00 | 88 | 1022.0 |
| 20260904031019 | 72 | 326 | 4.0 | 5.0 | 0.00 | 0.00 | 0.00 | 88 | 1022.0 |
| 20260904030022 | 72 | 326 | 4.0 | 7.0 | 0.00 | 0.00 | 0.00 | 88 | 1022.1 |
| 20260904025017 | 72 | 326 | 4.0 | 7.0 | 0.00 | 0.00 | 0.00 | 88 | 1022.1 |
| 20260904023017 | 72 | 326 | 3.0 | 4.0 | 0.00 | 0.00 | 0.00 | 87 | 1022.4 |
| 20260904022019 | 72 | 326 | 3.0 | 5.0 | 0.00 | 0.00 | 0.00 | 87 | 1022.4 |
| 20260904021017 | 72 | 326 | 3.0 | 5.0 | 0.00 | 0.00 | 0.00 | 87 | 1022.4 |
| 20260904020019 | 72 | 326 | 3.0 | 7.0 | 0.00 | 0.00 | 0.00 | 87 | 1022.5 |
| 20260904015019 | 72 | 326 | 3.0 | 5.0 | 0.00 | 0.00 | 0.00 | 86 | 1022.5 |
| 20260904014017 | 72 | 338 | 4.0 | 7.0 | 0.00 | 0.00 | 0.00 | 86 | 1022.7 |
| 20260904013018 | 72 | 319 | 4.0 | 7.0 | 0.00 | 0.00 | 0.00 | 86 | 1022.7 |
| 20260904012019 | 73 | 318 | 4.0 | 5.0 | 0.00 | 0.00 | 0.00 | 86 | 1022.8 |
| 20260904011019 | 73 | 318 | 3.0 | 5.0 | 0.00 | 0.00 | 0.00 | 86 | 1023.1 |
| 20260904010018 | 73 | 319 | 4.0 | 7.0 | 0.00 | 0.00 | 0.00 | 86 | 1023.0 |
| 20260904005017 | 73 | 319 | 3.0 | 7.0 | 0.00 | 0.00 | 0.00 | 86 | 1023.1 |